| time (UTC) | temp F | wind direction | speed MPH | gust MPH | rain 1hr in | rain 24hr in | rain mn in | humidity % | barometer mb |
| 20260902034551 | 63 | 174 | 17.0 | 24.0 | 0.00 | 0.01 | 0.00 | 85 | 1018.9 |
| 20260902033050 | 62 | 167 | 14.0 | 21.0 | 0.00 | 0.01 | 0.00 | 87 | 1019.0 |
| 20260902031544 | 62 | 173 | 12.0 | 18.0 | 0.00 | 0.01 | 0.00 | 88 | 1019.2 |
| 20260902030045 | 61 | 189 | 9.0 | 14.0 | 0.00 | 0.01 | 0.00 | 87 | 1019.2 |
| 20260902024540 | 61 | 167 | 8.0 | 16.0 | 0.00 | 0.01 | 0.00 | 86 | 1019.4 |
| 20260902023038 | 61 | 202 | 11.0 | 19.0 | 0.00 | 0.01 | 0.00 | 86 | 1019.6 |
| 20260902021537 | 62 | 209 | 15.0 | 23.0 | 0.00 | 0.01 | 0.00 | 85 | 1019.8 |
| 20260902020034 | 63 | 210 | 10.0 | 16.0 | 0.00 | 0.01 | 0.00 | 87 | 1019.9 |
| 20260902014534 | 63 | 214 | 11.0 | 16.0 | 0.00 | 0.01 | 0.00 | 86 | 1019.9 |
| 20260902013031 | 63 | 181 | 11.0 | 18.0 | 0.00 | 0.01 | 0.00 | 86 | 1020.1 |
| 20260902011529 | 62 | 199 | 11.0 | 15.0 | 0.00 | 0.01 | 0.00 | 87 | 1020.4 |
| 20260902010033 | 62 | 202 | 9.0 | 15.0 | 0.00 | 0.01 | 0.00 | 87 | 1020.4 |
| 20260902004529 | 62 | 210 | 9.0 | 15.0 | 0.00 | 0.01 | 0.00 | 86 | 1020.6 |
| 20260902003104 | 62 | 215 | 9.0 | 15.0 | 0.00 | 0.01 | 0.00 | 86 | 1020.6 |
| 20260902001522 | 62 | 197 | 9.0 | 14.0 | 0.00 | 0.01 | 0.00 | 86 | 1020.6 |
| 20260902000030 | 62 | 201 | 9.0 | 14.0 | 0.00 | 0.01 | 0.00 | 87 | 1020.9 |
| 20260901234517 | 62 | 201 | 8.0 | 14.0 | 0.00 | 0.01 | 0.00 | 86 | 1020.8 |
| 20260901233016 | 62 | 178 | 9.0 | 13.0 | 0.00 | 0.01 | 0.00 | 86 | 1020.9 |
| 20260901231514 | 62 | 193 | 9.0 | 14.0 | 0.00 | 0.01 | 0.00 | 86 | 1021.1 |
| 20260901230016 | 62 | 209 | 10.0 | 15.0 | 0.00 | 0.01 | 0.00 | 86 | 1021.2 |
| 20260901224511 | 62 | 214 | 10.0 | 14.0 | 0.00 | 0.01 | 0.01 | 87 | 1021.2 |
| 20260901223011 | 62 | 197 | 7.0 | 12.0 | 0.00 | 0.01 | 0.01 | 88 | 1021.3 |
| 20260901221510 | 62 | 217 | 7.0 | 10.0 | 0.00 | 0.01 | 0.01 | 88 | 1021.3 |
| 20260901220018 | 61 | 196 | 8.0 | 10.0 | 0.00 | 0.01 | 0.01 | 88 | 1021.5 |
| 20260901214508 | 61 | 195 | 7.0 | 12.0 | 0.00 | 0.01 | 0.01 | 88 | 1021.3 |
| 20260901213007 | 61 | 199 | 8.0 | 13.0 | 0.00 | 0.01 | 0.01 | 88 | 1021.2 |
| 20260901211507 | 61 | 202 | 8.0 | 12.0 | 0.00 | 0.01 | 0.01 | 89 | 1021.3 |
| 20260901210005 | 61 | 197 | 6.0 | 10.0 | 0.00 | 0.01 | 0.01 | 90 | 1021.4 |
| 20260901204504 | 60 | 212 | 5.0 | 8.0 | 0.00 | 0.01 | 0.01 | 91 | 1021.6 |
| 20260901203004 | 60 | 193 | 4.0 | 7.0 | 0.00 | 0.01 | 0.01 | 90 | 1021.6 |
| 20260901201502 | 60 | 213 | 4.0 | 6.0 | 0.00 | 0.01 | 0.01 | 89 | 1021.9 |
| 20260901200101 | 60 | 214 | 4.0 | 5.0 | 0.00 | 0.01 | 0.01 | 88 | 1021.9 |
| 20260901200001 | 60 | 209 | 4.0 | 5.0 | 0.00 | 0.01 | 0.01 | 88 | 1021.9 |
| 20260901194605 | 60 | 234 | 3.0 | 4.0 | 0.01 | 0.01 | 0.01 | 88 | 1021.6 |
| 20260901193106 | 60 | 240 | 3.0 | 4.0 | 0.01 | 0.01 | 0.01 | 88 | 1021.5 |
| 20260901191608 | 60 | 229 | 3.0 | 8.0 | 0.01 | 0.01 | 0.01 | 87 | 1021.6 |
| 20260901190124 | 60 | 234 | 10.0 | 15.0 | 0.01 | 0.01 | 0.01 | 85 | 1022.0 |
| 20260901184555 | 60 | 257 | 9.0 | 16.0 | 0.00 | 0.00 | 0.00 | 86 | 1022.0 |
| 20260901183054 | 60 | 288 | 12.0 | 18.0 | 0.00 | 0.00 | 0.00 | 86 | 1021.9 |
| 20260901181558 | 63 | 257 | 13.0 | 20.0 | 0.00 | 0.00 | 0.00 | 82 | 1022.0 |
| 20260901180053 | 65 | 202 | 7.0 | 11.0 | 0.00 | 0.00 | 0.00 | 80 | 1022.1 |
| 20260901174555 | 65 | 194 | 7.0 | 12.0 | 0.00 | 0.00 | 0.00 | 79 | 1022.1 |
| 20260901173051 | 66 | 220 | 7.0 | 12.0 | 0.00 | 0.00 | 0.00 | 78 | 1022.2 |
| 20260901171607 | 69 | 222 | 7.0 | 10.0 | 0.00 | 0.00 | 0.00 | 72 | 1022.3 |
| 20260901170055 | 71 | 226 | 6.0 | 10.0 | 0.00 | 0.00 | 0.00 | 74 | 1022.3 |
| 20260901164600 | 67 | 225 | 7.0 | 11.0 | 0.00 | 0.00 | 0.00 | 78 | 1022.4 |
| 20260901163105 | 67 | 208 | 7.0 | 12.0 | 0.00 | 0.00 | 0.00 | 79 | 1022.3 |
| 20260901161545 | 66 | 228 | 9.0 | 13.0 | 0.00 | 0.00 | 0.00 | 78 | 1022.4 |
| 20260901160047 | 67 | 217 | 9.0 | 13.0 | 0.00 | 0.00 | 0.00 | 77 | 1022.4 |
| 20260901154646 | 68 | 219 | 7.0 | 13.0 | 0.00 | 0.00 | 0.00 | 76 | 1022.4 |
| 20260901153044 | 68 | 201 | 9.0 | 14.0 | 0.00 | 0.00 | 0.00 | 75 | 1022.3 |
| 20260901151544 | 69 | 207 | 9.0 | 15.0 | 0.00 | 0.00 | 0.00 | 72 | 1022.4 |
| 20260901150042 | 71 | 221 | 10.0 | 16.0 | 0.00 | 0.00 | 0.00 | 71 | 1022.4 |
| 20260901144542 | 71 | 196 | 8.0 | 14.0 | 0.00 | 0.00 | 0.00 | 69 | 1022.4 |
| 20260901143041 | 73 | 229 | 10.0 | 15.0 | 0.00 | 0.00 | 0.00 | 69 | 1022.5 |
| 20260901141540 | 72 | 213 | 8.0 | 15.0 | 0.00 | 0.00 | 0.00 | 68 | 1022.5 |
| 20260901140041 | 72 | 216 | 10.0 | 16.0 | 0.00 | 0.00 | 0.00 | 66 | 1022.4 |
| 20260901134538 | 76 | 220 | 10.0 | 17.0 | 0.00 | 0.00 | 0.00 | 62 | 1022.4 |
| 20260901133042 | 75 | 219 | 12.0 | 18.0 | 0.00 | 0.00 | 0.00 | 64 | 1022.5 |
| 20260901131536 | 75 | 214 | 10.0 | 15.0 | 0.00 | 0.00 | 0.00 | 60 | 1022.6 |
| 20260901130034 | 76 | 218 | 10.0 | 14.0 | 0.00 | 0.00 | 0.00 | 62 | 1022.7 |
| 20260901124533 | 73 | 217 | 8.0 | 12.0 | 0.00 | 0.00 | 0.00 | 67 | 1022.6 |
| 20260901123031 | 75 | 222 | 8.0 | 12.0 | 0.00 | 0.00 | 0.00 | 64 | 1022.8 |
| 20260901121537 | 75 | 214 | 7.0 | 10.0 | 0.00 | 0.00 | 0.00 | 63 | 1022.7 |
| 20260901120027 | 74 | 207 | 8.0 | 11.0 | 0.00 | 0.00 | 0.00 | 66 | 1022.7 |
| 20260901114526 | 72 | 204 | 6.0 | 12.0 | 0.00 | 0.00 | 0.00 | 70 | 1022.8 |
| 20260901113025 | 71 | 216 | 8.0 | 12.0 | 0.00 | 0.00 | 0.00 | 67 | 1022.9 |
| 20260901111525 | 73 | 230 | 9.0 | 12.0 | 0.00 | 0.00 | 0.00 | 65 | 1022.9 |
| 20260901110023 | 74 | 209 | 9.0 | 16.0 | 0.00 | 0.00 | 0.00 | 67 | 1022.9 |
| 20260901104533 | 72 | 224 | 9.0 | 13.0 | 0.00 | 0.00 | 0.00 | 69 | 1022.8 |
| 20260901103028 | 74 | 212 | 10.0 | 14.0 | 0.00 | 0.00 | 0.00 | 66 | 1022.8 |
| 20260901101519 | 73 | 218 | 9.0 | 13.0 | 0.00 | 0.00 | 0.00 | 67 | 1022.7 |
| 20260901100017 | 73 | 230 | 8.0 | 11.0 | 0.00 | 0.00 | 0.00 | 68 | 1022.8 |
| 20260901094520 | 72 | 186 | 7.0 | 10.0 | 0.00 | 0.00 | 0.00 | 70 | 1022.7 |
| 20260901093010 | 71 | 211 | 5.0 | 9.0 | 0.00 | 0.00 | 0.00 | 73 | 1022.8 |
| 20260901091512 | 70 | 220 | 7.0 | 9.0 | 0.00 | 0.00 | 0.00 | 74 | 1022.9 |
| 20260901090005 | 67 | 226 | 6.0 | 11.0 | 0.00 | 0.00 | 0.00 | 78 | 1023.0 |
| 20260901084600 | 64 | 233 | 6.0 | 8.0 | 0.00 | 0.00 | 0.00 | 83 | 1022.9 |
| 20260901083056 | 63 | 233 | 7.0 | 10.0 | 0.00 | 0.00 | 0.00 | 82 | 1023.0 |
| 20260901081555 | 62 | 257 | 5.0 | 12.0 | 0.00 | 0.00 | 0.00 | 82 | 1022.9 |
| 20260901080108 | 63 | 224 | 8.0 | 13.0 | 0.00 | 0.00 | 0.00 | 81 | 1022.7 |
| 20260901074550 | 63 | 206 | 4.0 | 8.0 | 0.00 | 0.00 | 0.00 | 87 | 1022.7 |
| 20260901073046 | 61 | 214 | 4.0 | 6.0 | 0.00 | 0.00 | 0.00 | 90 | 1022.9 |
| 20260901071543 | 60 | 229 | 4.0 | 6.0 | 0.00 | 0.00 | 0.00 | 92 | 1022.7 |
| 20260901070057 | 59 | 233 | 3.0 | 5.0 | 0.00 | 0.00 | 0.00 | 91 | 1022.7 |
| 20260901064542 | 58 | 222 | 3.0 | 5.0 | 0.00 | 0.00 | 0.00 | 91 | 1022.7 |
| 20260901063037 | 58 | 233 | 4.0 | 6.0 | 0.00 | 0.00 | 0.00 | 91 | 1022.7 |
| 20260901061535 | 57 | 234 | 3.0 | 5.0 | 0.00 | 0.00 | 0.00 | 91 | 1022.4 |
| 20260901060040 | 57 | 227 | 3.0 | 5.0 | 0.00 | 0.00 | 0.00 | 90 | 1022.3 |
| 20260901054531 | 57 | 215 | 4.0 | 6.0 | 0.00 | 0.00 | 0.00 | 89 | 1022.2 |
| 20260901053031 | 58 | 220 | 4.0 | 6.0 | 0.00 | 0.00 | 0.00 | 90 | 1022.1 |
| 20260901051529 | 58 | 231 | 3.0 | 6.0 | 0.00 | 0.00 | 0.00 | 90 | 1022.3 |
| 20260901050028 | 58 | 243 | 4.0 | 5.0 | 0.00 | 0.00 | 0.00 | 90 | 1022.1 |
| 20260901044527 | 58 | 231 | 3.0 | 5.0 | 0.00 | 0.00 | 0.00 | 90 | 1022.1 |
| 20260901043026 | 58 | 233 | 3.0 | 5.0 | 0.00 | 0.00 | 0.00 | 89 | 1022.1 |
| 20260901041524 | 58 | 231 | 5.0 | 7.0 | 0.00 | 0.00 | 0.00 | 87 | 1022.0 |
| 20260901040023 | 58 | 236 | 5.0 | 8.0 | 0.00 | 0.00 | 0.00 | 87 | 1022.0 |